Lapse_Rate
5.7 5.6 5.6 5.6 5.7 5.7 5.8 5.8 5.9 5.9 6.0 6.0 6.0 6.0 6.0 6.0 5.8 5.8 5.8 5.8 5.9 6.0 6.1 6.2 6.2 6.2 6.6 6.7 6.1 5.6 6.0 6.2 5.9 6.5 6.3 6.6 6.3 6.6 6.4 5.9 5.7 5.7 6.3 5.9 5.5
5.5 5.5 5.6 5.6 5.6 5.8 5.8 5.9 5.9 6.0 6.0 6.0 6.0 6.0 6.0 6.1 6.1 6.3 6.0 5.8 5.8 5.9 5.9 6.0 6.2 6.1 6.4 6.7 6.4 6.2 6.5 6.0 6.2 7.1 6.7 6.8 6.3 6.6 6.5 6.2 5.9 5.5 5.7 5.7 5.6
5.6 5.6 5.7 5.7 5.7 5.8 5.9 5.9 6.0 6.0 6.1 6.0 6.0 6.0 6.1 6.0 6.1 6.2 6.2 6.1 5.7 5.7 5.9 5.9 5.8 5.6 6.3 6.6 6.4 6.8 7.1 5.8 6.2 6.9 6.6 7.0 6.2 6.9 6.7 6.1 6.0 5.8 5.9 5.8 5.4
5.6 5.7 5.7 5.8 5.8 5.8 5.9 6.0 6.0 6.1 6.1 6.1 6.1 6.1 6.1 6.1 5.9 6.0 6.0 6.1 5.9 5.7 5.7 5.9 5.8 6.1 6.1 6.7 6.8 7.0 7.2 5.8 6.2 7.0 6.5 6.4 6.1 7.0 6.6 6.1 5.8 5.7 5.6 5.8 5.1
5.7 5.8 5.8 5.8 5.8 5.9 5.9 6.0 6.1 6.1 6.2 6.2 6.2 6.2 6.1 6.2 6.1 6.2 6.1 6.2 6.1 5.9 5.7 5.8 6.0 6.1 6.3 6.7 7.0 7.8 7.6 6.7 6.3 6.7 6.9 6.6 5.9 6.8 6.8 6.4 6.0 5.9 5.7 5.0 5.0
5.9 6.0 6.0 6.0 6.0 6.1 6.1 6.1 6.1 6.2 6.3 6.2 6.2 6.3 6.2 6.2 6.5 6.2 6.2 6.2 6.1 5.9 5.6 5.9 6.2 6.2 6.4 6.9 7.8 7.8 7.2 6.8 6.3 6.6 6.8 7.0 6.6 6.5 6.6 6.1 6.1 6.0 5.6 5.2 4.9
5.9 6.0 6.1 6.2 6.2 6.2 6.2 6.2 6.2 6.2 6.2 6.3 6.3 6.3 6.4 6.1 6.4 6.4 6.4 6.3 6.2 6.1 5.7 5.8 6.1 6.3 6.4 6.8 8.4 7.6 7.0 7.1 7.5 7.0 6.6 6.8 7.0 6.8 6.6 6.4 5.9 6.1 5.6 5.5 5.2
5.8 5.9 6.0 6.0 6.1 6.2 6.2 6.2 6.2 6.2 6.2 6.2 6.3 6.4 6.4 6.3 6.2 6.4 6.3 6.4 6.3 6.1 5.7 5.8 6.0 6.1 6.5 6.7 7.0 7.2 7.4 7.0 7.2 7.2 7.0 6.0 6.5 6.8 6.3 6.0 5.8 6.0 5.6 5.7 5.5
5.9 6.0 6.0 6.0 6.0 6.1 6.2 6.2 6.2 6.2 6.2 6.1 6.3 6.4 6.4 6.5 6.4 6.4 6.4 6.3 6.2 6.2 5.9 5.8 5.8 6.3 6.5 6.9 7.4 7.7 6.8 6.7 7.3 7.1 7.2 6.4 7.1 7.1 6.6 6.5 5.8 6.1 5.7 5.8 6.0
5.9 6.0 6.1 6.1 6.1 6.0 6.0 5.9 5.8 5.9 6.1 6.1 6.1 6.2 6.2 6.2 6.5 6.5 6.4 5.9 5.7 5.7 5.7 5.7 5.7 6.0 6.5 7.0 7.1 7.4 7.7 7.6 6.9 6.8 6.8 6.6 7.2 7.0 7.2 6.3 6.0 5.9 5.9 5.8 5.8
5.9 6.0 6.0 5.9 5.9 6.0 5.8 5.6 5.4 5.5 6.1 6.2 5.7 6.3 6.0 6.0 5.8 6.3 6.0 5.9 5.7 5.7 5.8 5.8 5.7 6.1 6.5 7.5 8.0 9.0 8.4 7.9 7.7 8.0 7.0 6.8 7.3 7.3 7.2 6.7 6.6 6.1 5.9 6.1 6.0
6.0 6.1 6.1 5.9 5.7 5.8 5.7 5.5 5.5 5.4 6.2 6.4 6.1 6.5 6.5 6.0 5.9 5.8 5.8 6.0 5.8 5.9 5.9 6.0 6.2 6.6 6.9 7.3 8.3 9.4 8.9 8.5 7.2 8.0 7.4 8.4 7.9 7.2 7.4 6.7 7.2 6.6 5.9 5.8 5.8
6.2 6.2 6.2 5.9 5.7 5.7 5.5 5.3 5.4 5.1 5.4 6.8 6.5 6.6 6.4 6.0 6.1 6.2 6.1 6.2 6.1 6.2 6.3 6.3 6.8 6.9 7.1 7.7 8.0 9.5 9.7 9.0 8.4 8.1 7.9 8.6 8.8 7.3 7.1 6.7 5.8 6.9 6.6 5.8 5.5
6.2 6.2 6.2 6.0 5.7 5.5 5.5 5.4 5.2 5.1 5.0 6.3 6.3 6.5 6.2 6.0 6.2 6.0 6.3 6.5 6.3 6.6 6.7 6.8 7.0 7.2 7.3 7.6 8.3 8.6 9.7 9.6 9.2 8.8 8.6 8.9 8.5 7.6 8.0 7.4 7.6 7.0 7.2 6.1 5.8
6.1 6.2 6.2 6.0 5.6 5.3 5.2 5.3 5.2 5.1 4.6 6.4 6.5 6.4 6.5 6.4 6.5 6.5 6.2 6.5 6.7 6.8 7.0 7.2 7.3 7.5 7.6 7.8 8.3 8.3 9.0 9.3 9.5 9.5 9.2 8.8 9.3 8.3 8.0 7.3 7.5 7.1 7.4 6.2 6.0
6.1 6.0 6.0 5.9 5.7 5.5 5.4 5.3 5.4 5.0 5.8 6.9 6.8 6.8 6.4 6.5 6.8 6.5 6.4 6.6 6.8 6.9 7.0 7.2 7.6 7.6 7.8 8.0 8.0 8.4 8.2 8.6 9.3 9.5 8.5 9.0 9.4 8.5 8.4 8.3 7.7 7.5 7.2 6.8 6.8
5.9 5.9 5.9 5.8 5.5 5.4 5.5 5.5 5.2 5.7 7.9 8.4 7.4 6.6 6.8 6.9 6.9 6.9 6.7 6.8 7.0 7.1 7.2 7.6 7.8 8.0 8.1 7.9 8.1 8.0 8.1 8.0 7.5 7.6 6.8 9.3 9.3 8.0 8.6 8.8 8.4 8.4 7.7 7.0 7.3
5.8 5.8 5.8 5.6 5.6 5.4 5.5 5.5 5.2 7.0 7.8 8.9 8.8 7.3 7.3 7.2 7.3 7.4 7.4 7.1 7.5 7.5 7.5 7.7 8.1 8.4 9.0 8.4 8.4 8.2 8.2 7.9 6.8 6.7 7.8 9.0 8.7 8.2 8.0 7.9 8.0 8.1 7.9 7.4 7.4
5.9 6.0 6.0 5.9 5.7 5.6 5.6 5.1 6.4 7.2 7.0 7.2 7.9 7.9 8.5 8.4 8.2 8.1 8.1 7.7 8.0 8.0 7.8 8.0 7.8 9.1 9.5 9.3 8.6 8.4 8.0 8.5 8.5 9.1 9.1 8.9 8.9 8.7 8.5 7.9 8.2 8.0 7.7 7.4 7.5
5.6 6.0 6.2 5.9 5.5 5.5 5.5 5.8 6.4 6.9 7.2 7.4 7.4 7.6 7.8 8.5 9.5 9.4 9.1 8.8 8.6 8.6 8.4 8.4 8.5 8.9 9.3 9.6 8.7 8.6 8.6 8.8 9.1 7.5 7.8 8.4 8.4 8.7 8.8 8.3 7.9 8.6 8.4 7.8 7.7
5.5 5.2 5.6 5.6 5.1 5.4 5.7 5.9 6.3 6.8 7.1 7.1 7.0 7.2 7.4 7.8 8.1 9.1 9.6 9.6 9.5 9.5 9.2 8.9 9.0 9.0 9.3 9.5 9.5 9.0 8.8 8.5 8.8 9.2 7.4 7.3 8.1 9.0 9.0 8.8 8.3 7.9 8.5 7.8 7.8
5.4 5.2 5.0 5.0 5.2 5.2 5.8 6.0 6.4 6.8 6.9 6.7 6.6 6.9 7.1 7.6 7.7 8.0 8.9 9.3 9.2 9.6 9.7 9.6 9.4 9.5 9.2 9.3 9.5 9.6 9.2 9.1 8.9 8.6 9.3 9.3 9.2 9.1 9.3 8.7 8.1 8.1 8.7 8.5 7.8
5.6 5.4 4.7 5.0 5.3 5.2 5.7 6.0 6.4 6.8 6.8 6.8 6.8 6.9 7.0 7.1 7.3 7.7 7.8 8.6 8.8 8.9 9.6 9.7 9.7 9.6 9.7 9.3 9.5 9.6 9.5 9.2 9.6 9.5 9.2 8.5 9.1 9.2 8.8 9.1 8.6 8.6 8.2 8.1 8.0
5.6 5.7 5.2 5.0 5.5 5.4 5.7 5.9 6.4 6.7 6.7 6.6 6.8 6.9 6.8 6.9 7.1 7.3 7.8 8.0 8.4 8.3 9.1 9.1 9.2 9.3 9.2 9.4 9.3 9.4 9.6 9.6 9.5 9.5 9.3 9.4 9.5 8.9 8.9 8.6 8.5 8.6 8.4 7.8 7.6
5.2 4.8 4.6 5.2 5.4 5.2 5.5 5.8 6.2 6.5 7.1 7.0 6.6 6.9 7.1 6.9 7.0 7.2 7.5 7.9 8.3 8.3 8.1 8.6 8.7 9.0 9.1 8.7 8.9 9.1 9.4 9.5 9.5 9.5 9.3 9.3 9.3 9.0 8.9 8.9 8.7 8.1 7.9 7.6 7.9
4.9 5.1 5.2 5.7 5.5 5.3 5.5 5.8 6.1 6.4 6.8 7.3 7.7 7.2 7.0 6.8 6.7 6.6 6.3 6.9 7.2 7.9 7.5 7.9 8.0 8.6 8.5 8.8 8.5 9.0 9.0 9.4 9.5 9.4 9.3 9.1 9.3 9.2 9.1 9.1 8.9 7.8 7.4 7.7 7.2
4.4 4.6 4.4 5.4 5.1 4.8 5.6 6.1 6.4 6.8 6.9 7.1 7.3 7.1 7.1 7.4 6.5 6.7 6.4 6.1 6.4 6.8 7.2 7.3 7.5 7.9 7.7 8.5 8.6 8.6 8.7 9.3 9.5 9.4 9.1 8.7 8.9 9.1 9.0 8.8 8.4 7.6 6.9 7.0 7.2
Wind_Speed
16 16 16 16 15 15 14 15 15 16 16 16 16 16 16 18 20 4 8 10 8 15 4 5 9 11 15 14 1 8 4 2 3 8 3 13 4 11 9 14 14 11 21 20 20
16 16 17 17 17 17 17 17 17 17 17 16 15 15 14 14 5 10 14 13 6 16 4 7 10 14 9 9 4 6 4 6 3 6 4 11 8 11 10 18 20 23 21 20 18
17 17 17 18 19 20 20 20 19 18 17 16 15 13 12 12 5 8 19 25 13 13 6 10 14 17 12 7 6 7 5 2 13 12 17 20 12 11 11 11 20 23 22 22 18
18 18 18 19 21 22 22 22 20 19 18 16 14 11 11 4 1 3 0 21 13 8 7 6 9 11 9 9 6 6 9 13 8 9 12 5 1 4 10 5 20 19 21 20 18
19 19 19 21 22 23 22 21 20 20 17 15 11 8 5 4 10 5 9 11 7 5 9 11 12 12 11 4 7 5 3 6 15 14 6 8 3 6 4 4 20 19 15 19 19
20 20 21 22 22 23 23 22 20 18 15 11 7 4 3 6 5 14 10 8 8 8 9 12 10 14 11 11 2 12 8 8 11 7 1 4 7 7 6 12 21 19 16 11 20
22 23 23 23 23 24 24 24 22 17 15 6 5 4 5 14 11 12 10 7 8 10 9 12 16 8 9 10 5 17 9 5 4 9 3 16 6 3 8 8 20 17 16 13 16
23 24 24 24 24 24 25 24 23 16 7 3 5 5 7 10 23 10 10 10 11 10 12 14 11 8 4 10 10 8 6 4 6 2 2 6 3 5 15 7 12 16 16 13 17
24 25 25 25 25 24 25 29 23 9 1 7 4 3 8 1 8 10 11 11 11 10 10 14 4 4 5 7 7 6 4 1 6 8 5 3 6 15 15 13 17 15 13 15 11
24 25 27 26 26 25 27 24 1 5 4 7 8 5 7 12 9 10 9 9 9 7 6 5 1 3 5 3 7 5 6 7 3 3 12 12 8 9 15 15 12 8 15 15 17
26 26 27 29 28 20 13 3 1 2 6 10 9 7 8 12 9 9 9 7 7 6 8 8 4 7 12 14 17 7 11 8 8 13 9 20 10 14 12 13 8 6 13 15 16
26 27 28 31 31 24 5 4 7 5 7 19 22 20 22 13 9 14 11 7 7 8 8 7 9 12 15 15 15 14 13 8 6 10 9 11 16 14 16 8 10 8 9 17 15
28 27 28 34 36 7 6 10 12 8 6 12 22 20 15 9 10 11 13 9 7 9 10 10 13 16 16 13 11 10 3 10 8 19 22 9 3 18 5 12 18 13 8 14 14
27 28 27 36 4 8 5 2 7 6 4 7 8 12 17 12 10 13 17 11 7 11 13 9 17 16 14 10 7 7 6 7 15 8 5 6 4 8 14 14 16 19 14 14 10
25 26 25 12 8 4 8 11 8 3 4 8 8 7 10 18 4 12 11 9 11 13 7 11 12 11 10 7 7 8 7 7 4 8 6 8 1 3 10 11 14 13 18 19 15
29 25 22 2 3 9 16 15 5 2 6 6 7 7 6 11 17 8 10 9 11 12 15 13 12 7 9 10 8 7 6 8 6 1 2 9 6 4 9 14 13 12 17 21 18
34 32 7 7 4 9 12 4 2 4 8 8 6 11 10 9 12 10 13 11 6 4 9 14 12 10 8 5 7 5 1 4 4 4 6 6 4 8 8 8 15 18 15 23 20
40 38 7 7 14 11 2 2 4 10 9 12 2 12 10 10 12 15 11 8 9 10 10 8 9 16 12 10 9 7 9 6 6 5 5 5 4 7 9 18 17 11 16 19 21
37 3 3 5 17 6 2 4 5 2 16 8 11 4 5 10 9 12 11 12 12 12 11 6 13 13 11 10 11 9 5 11 6 7 1 4 5 6 2 8 16 16 7 11 16
6 4 5 12 15 4 2 5 7 13 15 9 7 7 9 12 5 12 10 14 15 16 16 10 9 14 11 9 9 9 7 3 3 5 5 5 3 5 4 9 3 8 12 5 1
3 3 3 11 5 2 4 6 12 18 12 2 6 9 12 14 14 13 11 15 19 16 16 15 9 14 7 4 9 3 6 4 2 4 6 5 5 7 13 16 10 9 13 12 5
5 3 6 6 3 4 7 7 9 18 8 7 4 7 10 15 13 12 12 8 18 10 14 11 8 7 11 11 7 9 11 9 5 10 4 5 6 7 11 10 21 15 9 9 7
6 4 5 5 3 6 11 15 17 18 4 6 8 10 7 9 9 8 14 16 13 6 3 5 2 2 6 8 10 7 9 8 5 5 9 2 5 2 21 18 17 20 16 16 11
4 4 3 4 7 9 11 10 14 13 11 5 7 9 8 9 10 8 10 9 14 6 3 6 4 4 7 8 3 7 7 9 7 3 6 6 4 6 14 14 8 8 17 15 14
3 3 7 4 7 15 13 12 13 13 15 12 2 8 8 6 10 11 11 14 12 12 8 2 3 6 8 10 9 13 9 12 7 7 4 5 4 4 12 14 14 9 3 8 12
3 5 7 9 10 12 11 9 14 14 12 14 10 8 8 6 3 7 13 7 4 10 10 9 6 6 7 13 11 15 15 15 10 7 9 14 4 6 8 15 17 24 23 15 6
5 5 5 7 9 9 10 13 17 14 9 9 11 6 6 8 8 9 7 11 8 7 7 5 6 4 7 9 11 10 9 9 6 6 5 5 8 6 4 15 21 13 12 6 13
Wind_Direction
359 357 353 348 344 338 334 328 322 315 311 309 311 315 321 323 313 199 242 232 193 214 190 259 205 235 248 257 218 77 356 332 188 183 195 265 251 92 121 140 134 105 125 135 135
355 352 348 344 338 333 328 325 320 312 308 307 309 314 319 325 287 249 241 229 164 148 206 224 246 222 231 242 120 117 184 238 223 161 72 307 320 147 113 102 102 111 125 136 144
353 349 345 340 333 330 326 322 321 314 307 302 304 311 317 315 276 243 204 215 168 166 257 260 275 291 251 241 146 158 197 222 174 135 138 231 308 107 94 121 135 136 144 145 146
351 347 342 333 329 325 322 319 318 310 302 297 301 309 314 271 275 24 146 177 165 184 236 265 267 269 269 256 141 117 305 125 255 164 159 203 178 99 123 150 139 142 149 150 155
348 343 336 329 326 323 319 318 318 313 304 292 292 306 293 226 249 153 128 130 149 186 217 234 261 264 262 256 113 115 119 2 216 167 220 158 153 160 148 203 140 143 156 158 167
343 338 330 328 325 322 320 318 319 312 304 291 278 291 243 254 138 151 166 159 186 189 217 241 252 261 277 304 210 117 47 339 343 52 100 140 188 98 338 119 143 150 165 183 176
341 332 327 326 325 322 319 317 319 313 303 275 231 230 262 241 143 164 180 185 209 187 225 246 252 276 299 303 244 135 116 299 46 10 351 345 56 9 298 304 151 160 176 180 154
331 330 328 326 324 321 317 312 310 309 315 195 191 234 255 238 242 194 178 196 207 227 218 255 287 279 322 305 303 105 73 11 7 355 254 328 219 195 252 292 262 173 178 164 142
331 329 327 325 322 321 318 306 295 284 185 164 183 241 262 233 178 231 180 201 208 229 226 252 1 321 308 285 306 56 87 88 302 152 128 195 246 214 220 226 242 180 172 159 153
331 329 326 323 321 324 322 300 328 304 213 201 263 277 253 227 191 238 208 226 197 211 253 233 350 246 289 271 252 154 146 230 120 259 186 224 230 234 216 218 206 181 153 157 160
331 328 325 322 319 326 343 332 91 153 257 211 196 236 278 227 171 211 189 220 238 175 221 233 189 228 222 236 245 234 150 160 222 251 207 243 204 219 204 221 198 193 160 163 164
330 328 326 322 316 314 280 249 300 320 287 224 243 253 265 261 175 202 163 195 223 215 224 258 220 232 244 248 251 263 159 196 225 262 228 258 201 196 184 209 194 195 183 165 174
330 329 328 324 316 295 224 253 299 312 285 272 231 224 237 238 184 202 162 204 220 227 229 215 247 221 240 259 270 270 261 132 152 229 222 263 18 175 183 148 234 189 192 180 172
327 327 331 332 333 335 272 307 282 306 297 269 183 217 230 240 220 216 177 181 235 219 223 230 244 254 236 232 251 275 237 237 160 159 226 223 227 210 173 181 222 195 187 189 174
324 321 322 317 308 290 303 325 304 350 299 163 132 179 178 203 241 216 186 189 218 248 220 240 247 256 264 266 223 247 284 288 253 187 180 270 168 292 148 206 208 202 192 197 194
323 317 325 277 203 252 295 294 314 253 247 152 142 168 183 191 230 251 193 181 205 254 275 267 262 265 225 238 241 266 317 303 304 209 195 230 198 204 193 205 193 214 207 195 194
320 312 291 287 244 323 327 305 248 238 325 149 176 162 188 189 216 233 207 190 189 231 259 279 273 269 274 271 296 192 221 318 324 331 239 14 25 14 259 225 201 201 195 195 183
322 311 229 208 237 271 242 312 253 280 304 351 70 161 179 183 196 222 224 198 201 220 271 234 275 235 223 196 201 243 174 172 226 225 237 344 156 197 216 232 249 211 221 191 182
319 279 216 235 217 251 280 237 239 239 347 1 344 296 262 183 183 199 219 194 210 194 225 277 280 297 285 207 161 251 248 217 240 264 277 220 284 288 301 209 230 228 124 151 168
317 281 253 216 180 196 226 254 288 316 294 326 340 335 322 314 243 187 205 205 219 212 202 234 263 276 298 179 200 176 237 278 298 241 263 232 240 228 217 175 263 146 142 71 32
261 273 120 132 152 207 230 243 279 288 314 12 351 312 307 308 317 317 223 223 214 216 214 212 202 269 313 218 191 216 252 263 210 178 201 255 246 218 191 207 118 81 119 158 237
319 274 160 151 188 222 228 243 253 279 335 331 170 259 280 295 307 317 323 324 345 352 212 209 193 221 235 268 223 197 196 202 155 282 247 196 269 319 196 120 124 114 120 95 168
311 266 225 173 247 248 268 289 297 281 268 309 292 296 290 290 305 303 313 316 323 33 360 330 285 218 304 319 308 209 225 206 214 212 251 223 271 176 108 115 133 135 149 139 141
288 294 212 196 238 257 279 286 298 320 322 211 316 320 316 320 310 297 297 291 320 343 347 19 302 169 208 216 265 317 208 211 220 222 250 238 167 118 114 134 163 181 161 173 161
240 305 16 314 339 334 327 325 320 325 323 323 303 289 273 285 299 299 297 312 311 327 326 148 262 309 298 292 310 309 270 260 248 237 223 241 126 192 141 163 168 137 87 180 142
305 1 344 300 313 321 304 284 277 282 276 290 297 243 306 339 3 340 353 355 328 347 345 337 296 275 284 294 298 302 293 261 261 303 331 293 188 173 143 151 147 169 169 206 223
352 348 313 295 304 299 289 302 311 301 330 312 341 343 291 291 6 340 334 313 306 315 321 310 336 5 271 272 295 273 273 289 254 252 89 347 276 148 133 151 163 132 50 71 17